User: anonymous   Login
Location: Unspecified
(0.0000°N, 0.0000°E)
Time: 03:22:12
(UTC+02:00)
Language:

ARIANE 44L R/B - Orbit

View from above orbital plane
View from above orbital plane
View from above satellite
View from above satellite

Ground track
Ground track

The orbit data is extracted from the following two-line orbital elements,

1 26901U 01039B   17149.26232355 +.00006762 +00000-0 +13390-2 0  9990
2 26901 007.1617 132.8994 6893347 339.1171 002.7085 02.78726488143083
Epoch (UTC): 29 May 2017 06:17:44
Eccentricity: 0.6893347
inclination: 7.1617°
perigee height: 248 km
apogee height: 29651 km
right ascension of ascending node: 132.8994°
argument of perigee: 339.1171°
revolutions per day: 2.78726488
mean anomaly at epoch: 2.7085°
orbit number at epoch: 14308

The dashed part of the orbit path shows where the satellite is in the earth's shadow,  

DLR